Satellite-Ground Cal/Val Region Overpasses Predictions

Prediction of Satellite NPP Overpassing Cal/Val Region: PacN

Region Location: (Latitude: 15.00, Longitude: 179.40) to (Latitude: 23.50, Longitude: 200.60).

Table of predicted overpasses for the next 14.0 days since TLE Epoch: 11/23/2022
Interval Starting Time Starting Location Ending Time Ending Location
1 11/24/2022 01:13:48 ( 19.13, 179.99) 11/24/2022 01:14:29 ( 21.53, 179.40)
2 11/24/2022 13:42:52 ( 23.48, 179.59) 11/24/2022 13:43:04 ( 22.78, 179.41)
3 11/29/2022 01:18:55 ( 15.05, 179.41) 11/29/2022 01:18:55 ( 15.05, 179.41)
